TimeMST,TemperatureF,Dew PointF,Humidity,Sea Level PressureIn,VisibilityMPH,Wind Direction,Wind SpeedMPH,Gust SpeedMPH,PrecipitationIn,Events,Conditions,WindDirDegrees,DateUTC
12:53 AM,19.9,3.0,48,30.20,10.0,West,3.5,-,N/A,,Overcast,260,2013-01-02 07:53:00
1:53 AM,23.0,5.0,46,30.20,10.0,Calm,Calm,-,N/A,,Overcast,0,2013-01-02 08:53:00
2:53 AM,21.9,5.0,48,30.21,10.0,ESE,3.5,-,N/A,,Mostly Cloudy,110,2013-01-02 09:53:00
3:53 AM,16.0,5.0,62,30.23,10.0,SSW,4.6,-,N/A,,Mostly Cloudy,210,2013-01-02 10:53:00
4:53 AM,19.0,7.0,59,30.24,10.0,SSW,10.4,-,N/A,,Overcast,200,2013-01-02 11:53:00
5:53 AM,15.1,7.0,70,30.28,10.0,SSW,9.2,-,N/A,,Mostly Cloudy,200,2013-01-02 12:53:00
6:53 AM,16.0,6.1,65,30.32,10.0,SW,8.1,-,N/A,,Mostly Cloudy,230,2013-01-02 13:53:00
7:53 AM,17.1,3.0,54,30.30,10.0,SW,9.2,-,N/A,,Mostly Cloudy,230,2013-01-02 14:53:00
8:53 AM,21.0,5.0,50,30.29,10.0,SW,5.8,-,N/A,,Mostly Cloudy,230,2013-01-02 15:53:00
9:53 AM,26.1,5.0,41,30.29,10.0,West,4.6,-,N/A,,Mostly Cloudy,260,2013-01-02 16:53:00
10:53 AM,30.0,1.0,29,30.26,10.0,Calm,Calm,-,N/A,,Scattered Clouds,0,2013-01-02 17:53:00
11:53 AM,28.9,6.1,38,30.24,10.0,North,15.0,-,N/A,,Scattered Clouds,10,2013-01-02 18:53:00
12:53 PM,28.0,8.1,43,30.22,10.0,North,17.3,21.9,N/A,,Scattered Clouds,10,2013-01-02 19:53:00
1:53 PM,28.0,9.0,45,30.19,10.0,North,16.1,-,N/A,,Scattered Clouds,10,2013-01-02 20:53:00
2:53 PM,28.9,9.0,43,30.20,10.0,North,8.1,-,N/A,,Partly Cloudy,360,2013-01-02 21:53:00
3:53 PM,27.0,9.0,47,30.25,10.0,ENE,5.8,-,N/A,,Scattered Clouds,70,2013-01-02 22:53:00
4:53 PM,24.1,7.0,48,30.28,10.0,ENE,4.6,-,N/A,,Scattered Clouds,60,2013-01-02 23:53:00
5:53 PM,19.9,5.0,52,30.32,10.0,ENE,4.6,-,N/A,,Scattered Clouds,60,2013-01-03 00:53:00
6:53 PM,17.1,3.9,56,30.35,10.0,South,5.8,-,N/A,,Scattered Clouds,170,2013-01-03 01:53:00
7:53 PM,19.0,3.0,50,30.35,10.0,SW,4.6,-,N/A,,Scattered Clouds,220,2013-01-03 02:53:00
8:53 PM,18.0,3.9,54,30.35,10.0,WSW,5.8,-,N/A,,Overcast,240,2013-01-03 03:53:00
9:53 PM,17.1,5.0,59,30.35,10.0,SW,10.4,-,N/A,,Mostly Cloudy,230,2013-01-03 04:53:00
10:53 PM,19.0,5.0,54,30.34,10.0,SSW,11.5,-,N/A,,Overcast,210,2013-01-03 05:53:00
11:53 PM,19.0,5.0,54,30.36,10.0,WSW,5.8,-,N/A,,Overcast,240,2013-01-03 06:53:00